Location: Cheyres
(46.8153°N, 6.7877°E)
Time: 02:28:57
(UTC+00:00)

CUTE 1.7 + AOD 2 - Pass Details

Date: 05 July 2022
Orbit: 589 x 608 km, 97.7° (Epoch: 17 August)

Event Time Altitude Azimuth Distance (km) Brightness Sun altitude
Rises 02:48:51 0° 22° (NNE) 2,850 ? -8.1°
Reaches altitude 10° 02:51:14 10° 33° (NNE) 1,939 ? -7.8°
Maximum altitude 02:54:59 31° 96° (E) 1,055 ? -7.4°
Drops below altitude 10° 02:58:41 10° 159° (SSE) 1,916 ? -6.9°
Sets 03:01:02 0° 170° (S) 2,810 ? -6.6°
